Home   Weather   Olathe   Past weeks

Flag for USA Past Weather in Olathe, Kansas, USA — Yesterday and Last 2 Weeks

Now
48 °F

Light rain. Low clouds.


Feels Like: 41 °F
Forecast: 46 / 48 °F
Wind: 20 mph from East

Location: Johnson County Executive Airport

Current Time: Apr 29, 2017 at 4:28:27 pm

Latest Report: Apr 29, 2017 at 3:53 pm


Visibility: 7 mi

Pressure: 29.67 "Hg

Humidity: 100%

Dew Point: 48 °F

Location of OlatheLocation

Past Weather in Olathe — Graph

°F

Olathe Temperature Yesterday

Maximum temperature yesterday: 64 °F (at 4:53 pm)
Minimum temperature yesterday: 46 °F (at 11:53 pm)
Average temperature yesterday: 55 °F

High & Low Weather Summary for the Past Weeks

 TemperatureHumidityPressure
High78 °F (Apr 15, 4:53 pm)100% (Apr 16, 12:53 am)30.18 "Hg (Apr 16, 12:53 am)
Low40 °F (Apr 27, 6:53 am)25% (Apr 22, 4:53 pm)29.39 "Hg (Apr 25, 2:53 pm)
Average58 °F74%29.88 "Hg
* Reported Apr 14 1:00 pm — Apr 29 1:53 pm, Olathe, Weather by CustomWeather, © 2017

Note: Actual official high and low records may vary slightly from our data, if they occured in-between our weather recording intervals... More about our weather records

Advertising

Olathe Weather History for the Previous 24 Hours

Scroll right to see more
 ConditionsComfort  
Time TempWeatherWind HumidityBarometerVisibility
1:53 pm
Sat, Apr 29
48 °FLight rain. Low clouds.16 mph100%29.85 "Hg9 mi
1:34 pm48 °FLight rain. Mostly cloudy.15 mph100%29.84 "Hg10 mi
1:02 pm48 °FLight rain. Fog.13 mph100%29.87 "Hg5 mi
12:31 pm47 °FLight rain. Mostly cloudy.21 mph100%29.81 "Hg8 mi
12:04 pm46 °FThunderstorms. Fog.25 mph100%29.82 "Hg4 mi
11:53 am46 °FRain. Fog.21 mph100%29.90 "Hg4 mi
11:29 am46 °FRain. Fog.17 mph100%29.89 "Hg4 mi
11:14 am47 °FThundershowers. Fog.14 mph100%29.91 "Hg4 mi
10:53 am47 °FLight rain. Fog.14 mph100%29.92 "Hg6 mi
9:53 am46 °FRain. Fog.10 mph100%29.91 "Hg3 mi
9:35 am46 °FThundershowers. Fog.14 mph100%29.85 "Hg6 mi
8:53 am46 °FLight rain. Low clouds.9 mph100%29.89 "Hg10 mi
8:25 am46 °FLight rain. Fog.12 mph100%29.85 "Hg5 mi
7:37 am46 °FLight rain. Low clouds.12 mph100%29.87 "Hg10 mi
6:53 am45 °FLight rain. Low clouds.14 mph100%29.81 "Hg7 mi
6:28 am45 °FThunderstorms. Fog.13 mph100%29.87 "Hg3 mi
6:18 am45 °FLight rain. Fog.8 mph100%29.90 "Hg2 mi
6:03 am45 °FLight rain. Fog.14 mph100%29.88 "Hg1 mi
5:53 am45 °FLight rain. Fog.15 mph100%29.86 "Hg1 mi
5:14 am45 °FFog.17 mph100%29.87 "Hg2 mi
4:53 am45 °FFog.12 mph100%29.86 "Hg4 mi
3:53 am44 °FFog.16 mph100%29.86 "Hg5 mi
3:37 am44 °FFog.15 mph100%29.87 "Hg4 mi
3:14 am44 °FFog.17 mph100%29.89 "Hg2 mi
2:40 am44 °FFog.15 mph100%29.90 "Hg1 mi
2:10 am44 °FFog.16 mph100%29.90 "Hg3 mi
1:53 am44 °FFog.13 mph100%29.88 "Hg2 mi
1:17 am44 °FFog.18 mph100%29.85 "Hg1 mi
1:00 am44 °FFog.15 mph100%29.87 "Hg1 mi
11:53 pm
Fri, Apr 28
46 °FLow clouds.16 mph100%29.88 "Hg8 mi
10:53 pm48 °FLow clouds.12 mph100%29.93 "Hg7 mi
10:19 pm49 °FLow clouds.14 mph100%29.91 "Hg7 mi
9:53 pm50 °FLow clouds.13 mph100%29.90 "Hg8 mi
9:32 pm50 °FLow clouds.12 mph100%29.89 "Hg7 mi
8:53 pm53 °FLow clouds.10 mph100%29.86 "Hg10 mi
7:53 pm58 °FMostly cloudy.13 mph97%29.80 "Hg10 mi
6:53 pm63 °FPassing clouds.5 mph84%29.75 "Hg10 mi
5:53 pm64 °FSunny.8 mph84%29.69 "Hg10 mi
4:53 pm64 °FPassing clouds.No wind84%29.70 "Hg10 mi
4:11 pm61 °FMostly cloudy.3 mph90%29.70 "Hg10 mi
Weather by CustomWeather, © 2017

See weather overviewHow to use our weather pages